Time,TemperatureF,DewpointF,PressureIn,WindDirection,WindDirectionDegrees,WindSpeedMPH,WindSpeedGustMPH,Humidity,HourlyPrecipIn,Conditions,Clouds,dailyrainin,SoftwareType,DateUTC
2013-09-17 00:02:00,63.3,54.5,29.76,SSE,159,8.0,11.0,73,0.00,,,0.00,Wunderground v.1.15,2013-09-17 07:02:00,
2013-09-17 00:07:00,63.1,54.3,29.76,WSW,250,5.0,15.0,73,0.00,,,0.00,Wunderground v.1.15,2013-09-17 07:07:00,
2013-09-17 00:12:00,62.9,54.5,29.75,SSE,162,10.0,16.0,74,0.00,,,0.00,Wunderground v.1.15,2013-09-17 07:12:00,
2013-09-17 00:17:00,62.8,54.4,29.75,SSW,213,6.0,17.0,74,0.00,,,0.00,Wunderground v.1.15,2013-09-17 07:17:00,
2013-09-17 00:22:00,62.7,54.3,29.75,SW,215,11.0,11.0,74,0.00,,,0.00,Wunderground v.1.15,2013-09-17 07:22:00,
2013-09-17 00:27:00,62.7,54.3,29.75,SW,219,10.0,14.0,74,0.00,,,0.00,Wunderground v.1.15,2013-09-17 07:27:00,
2013-09-17 00:32:00,62.5,54.1,29.75,SSW,196,8.0,10.0,74,0.00,,,0.00,Wunderground v.1.15,2013-09-17 07:32:00,
2013-09-17 00:37:00,62.4,54.0,29.75,SSW,209,7.0,18.0,74,0.00,,,0.00,Wunderground v.1.15,2013-09-17 07:37:00,
2013-09-17 00:42:00,62.3,53.9,29.76,SSW,203,7.0,13.0,74,0.00,,,0.00,Wunderground v.1.15,2013-09-17 07:42:00,
2013-09-17 00:47:00,62.1,53.7,29.76,SW,220,9.0,13.0,74,0.00,,,0.00,Wunderground v.1.15,2013-09-17 07:47:00,
2013-09-17 00:52:00,61.8,53.4,29.76,SSW,204,9.0,10.0,74,0.00,,,0.00,Wunderground v.1.15,2013-09-17 07:52:00,
2013-09-17 00:58:00,61.6,53.6,29.76,SSW,209,9.0,11.0,75,0.00,,,0.00,Wunderground v.1.15,2013-09-17 07:58:00,
2013-09-17 01:03:00,61.4,53.4,29.76,SW,214,10.0,13.0,75,0.00,,,0.00,Wunderground v.1.15,2013-09-17 08:03:00,
2013-09-17 01:08:00,61.2,53.6,29.75,SSW,205,11.0,16.0,76,0.00,,,0.00,Wunderground v.1.15,2013-09-17 08:08:00,
2013-09-17 01:13:00,61.2,53.6,29.76,SSW,212,7.0,19.0,76,0.00,,,0.00,Wunderground v.1.15,2013-09-17 08:13:00,
2013-09-17 01:18:00,61.1,53.5,29.75,SSW,213,8.0,19.0,76,0.00,,,0.00,Wunderground v.1.15,2013-09-17 08:18:00,
2013-09-17 01:24:00,60.9,53.3,29.75,SSW,198,7.0,14.0,76,0.00,,,0.00,Wunderground v.1.15,2013-09-17 08:24:00,
2013-09-17 01:29:00,60.9,53.6,29.75,SW,221,7.0,20.0,77,0.00,,,0.00,Wunderground v.1.15,2013-09-17 08:29:00,
2013-09-17 01:34:00,60.9,53.6,29.75,SSW,205,4.0,15.0,77,0.00,,,0.00,Wunderground v.1.15,2013-09-17 08:34:00,
2013-09-17 01:39:00,61.0,53.7,29.75,SSW,193,11.0,17.0,77,0.00,,,0.00,Wunderground v.1.15,2013-09-17 08:39:00,
2013-09-17 01:44:00,60.8,53.9,29.76,SSW,210,14.0,17.0,78,0.00,,,0.00,Wunderground v.1.15,2013-09-17 08:44:00,
2013-09-17 01:50:00,60.5,53.6,29.75,SW,221,14.0,14.0,78,0.00,,,0.00,Wunderground v.1.15,2013-09-17 08:50:00,
2013-09-17 01:55:00,60.3,53.8,29.75,South,171,10.0,15.0,79,0.00,,,0.00,Wunderground v.1.15,2013-09-17 08:55:00,
2013-09-17 02:00:00,60.2,53.7,29.75,SSW,197,15.0,15.0,79,0.00,,,0.00,Wunderground v.1.15,2013-09-17 09:00:00,
2013-09-17 02:05:00,60.1,53.9,29.75,SW,221,11.0,21.0,80,0.00,,,0.00,Wunderground v.1.15,2013-09-17 09:05:00,
2013-09-17 02:10:00,60.0,53.8,29.75,SW,223,22.0,22.0,80,0.00,,,0.00,Wunderground v.1.15,2013-09-17 09:10:00,
2013-09-17 02:15:00,59.9,53.7,29.76,SSW,199,10.0,22.0,80,0.00,,,0.00,Wunderground v.1.15,2013-09-17 09:15:00,
2013-09-17 02:20:00,59.8,54.0,29.75,SW,215,19.0,19.0,81,0.00,,,0.00,Wunderground v.1.15,2013-09-17 09:20:00,
2013-09-17 02:25:00,59.8,54.0,29.75,South,188,7.0,20.0,81,0.00,,,0.00,Wunderground v.1.15,2013-09-17 09:25:00,
2013-09-17 02:30:00,59.7,53.9,29.75,SSW,202,11.0,12.0,81,0.00,,,0.00,Wunderground v.1.15,2013-09-17 09:30:00,
2013-09-17 02:35:00,59.7,53.9,29.75,SW,221,16.0,23.0,81,0.00,,,0.00,Wunderground v.1.15,2013-09-17 09:35:00,
2013-09-17 02:40:00,59.6,53.8,29.76,WSW,253,10.0,10.0,81,0.00,,,0.00,Wunderground v.1.15,2013-09-17 09:40:00,
2013-09-17 02:45:00,59.6,54.1,29.76,SSW,209,6.0,17.0,82,0.00,,,0.00,Wunderground v.1.15,2013-09-17 09:45:00,
2013-09-17 02:50:00,59.5,54.0,29.75,SW,225,7.0,12.0,82,0.00,,,0.00,Wunderground v.1.15,2013-09-17 09:50:00,
2013-09-17 02:55:00,59.5,54.0,29.76,South,186,7.0,19.0,82,0.00,,,0.00,Wunderground v.1.15,2013-09-17 09:55:00,
2013-09-17 03:00:00,59.6,54.1,29.75,SSW,211,7.0,9.0,82,0.00,,,0.00,Wunderground v.1.15,2013-09-17 10:00:00,
2013-09-17 03:05:00,59.6,54.1,29.76,South,175,15.0,19.0,82,0.00,,,0.00,Wunderground v.1.15,2013-09-17 10:05:00,
2013-09-17 03:10:00,59.5,54.0,29.76,SSW,194,9.0,10.0,82,0.00,,,0.00,Wunderground v.1.15,2013-09-17 10:10:00,
2013-09-17 03:15:00,59.5,54.0,29.76,SSW,196,11.0,16.0,82,0.00,,,0.00,Wunderground v.1.15,2013-09-17 10:15:00,
2013-09-17 03:20:00,59.5,54.0,29.76,SW,214,7.0,9.0,82,0.00,,,0.00,Wunderground v.1.15,2013-09-17 10:20:00,
2013-09-17 03:25:00,59.5,54.0,29.76,SW,215,9.0,14.0,82,0.00,,,0.00,Wunderground v.1.15,2013-09-17 10:25:00,
2013-09-17 03:30:00,59.5,53.7,29.76,SSW,196,7.0,7.0,81,0.00,,,0.00,Wunderground v.1.15,2013-09-17 10:30:00,
2013-09-17 03:35:00,59.6,53.8,29.76,SSW,202,10.0,12.0,81,0.00,,,0.00,Wunderground v.1.15,2013-09-17 10:35:00,
2013-09-17 03:40:00,59.6,53.8,29.76,SW,217,7.0,8.0,81,0.00,,,0.00,Wunderground v.1.15,2013-09-17 10:40:00,
2013-09-17 03:45:00,59.5,53.7,29.76,SW,216,11.0,15.0,81,0.00,,,0.00,Wunderground v.1.15,2013-09-17 10:45:00,
2013-09-17 03:50:00,59.5,53.7,29.76,WSW,250,8.0,12.0,81,0.00,,,0.00,Wunderground v.1.15,2013-09-17 10:50:00,
2013-09-17 03:55:00,59.5,53.7,29.76,SW,231,6.0,17.0,81,0.00,,,0.00,Wunderground v.1.15,2013-09-17 10:55:00,
2013-09-17 04:00:00,59.5,53.7,29.76,SSW,201,5.0,9.0,81,0.00,,,0.00,Wunderground v.1.15,2013-09-17 11:00:00,
2013-09-17 04:05:00,59.4,53.6,29.75,South,179,6.0,11.0,81,0.00,,,0.00,Wunderground v.1.15,2013-09-17 11:05:00,
2013-09-17 04:10:00,59.3,53.8,29.75,WSW,243,11.0,11.0,82,0.00,,,0.00,Wunderground v.1.15,2013-09-17 11:10:00,
2013-09-17 04:15:00,59.1,53.6,29.75,SSW,200,7.0,16.0,82,0.00,,,0.00,Wunderground v.1.15,2013-09-17 11:15:00,
2013-09-17 04:20:00,59.0,53.8,29.75,SW,232,9.0,9.0,83,0.00,,,0.00,Wunderground v.1.15,2013-09-17 11:20:00,
2013-09-17 04:25:00,58.8,53.6,29.75,SSW,205,9.0,16.0,83,0.00,,,0.00,Wunderground v.1.15,2013-09-17 11:25:00,
2013-09-17 04:30:00,58.7,53.5,29.75,SW,217,11.0,11.0,83,0.00,,,0.00,Wunderground v.1.15,2013-09-17 11:30:00,
2013-09-17 04:35:00,58.7,53.5,29.75,WSW,238,10.0,15.0,83,0.00,,,0.00,Wunderground v.1.15,2013-09-17 11:35:00,
2013-09-17 04:40:00,58.7,53.5,29.75,SSW,209,7.0,12.0,83,0.00,,,0.00,Wunderground v.1.15,2013-09-17 11:40:00,
2013-09-17 04:45:00,58.7,53.5,29.75,SSW,207,7.0,16.0,83,0.00,,,0.00,Wunderground v.1.15,2013-09-17 11:45:00,
2013-09-17 04:50:00,58.6,53.5,29.76,SW,227,4.0,12.0,83,0.00,,,0.00,Wunderground v.1.15,2013-09-17 11:50:00,
2013-09-17 04:55:00,58.6,53.5,29.76,SSW,213,7.0,16.0,83,0.00,,,0.00,Wunderground v.1.15,2013-09-17 11:55:00,
2013-09-17 05:00:00,58.6,53.5,29.76,SW,227,12.0,23.0,83,0.00,,,0.00,Wunderground v.1.15,2013-09-17 12:00:00,
2013-09-17 05:05:00,58.7,53.5,29.76,SW,215,9.0,23.0,83,0.00,,,0.00,Wunderground v.1.15,2013-09-17 12:05:00,
2013-09-17 05:10:00,58.9,53.4,29.76,SW,225,15.0,19.0,82,0.00,,,0.00,Wunderground v.1.15,2013-09-17 12:10:00,
2013-09-17 05:16:00,58.9,53.4,29.75,SW,232,7.0,19.0,82,0.00,,,0.00,Wunderground v.1.15,2013-09-17 12:16:00,
2013-09-17 05:20:00,59.0,53.2,29.76,SW,225,12.0,15.0,81,0.00,,,0.00,Wunderground v.1.15,2013-09-17 12:20:00,
2013-09-17 05:25:00,59.0,53.2,29.76,SW,227,11.0,18.0,81,0.00,,,0.00,Wunderground v.1.15,2013-09-17 12:25:00,
2013-09-17 05:30:00,58.9,53.1,29.76,WSW,239,7.0,15.0,81,0.00,,,0.00,Wunderground v.1.15,2013-09-17 12:30:00,
2013-09-17 05:35:00,58.9,53.1,29.76,SW,220,11.0,19.0,81,0.00,,,0.00,Wunderground v.1.15,2013-09-17 12:35:00,
2013-09-17 05:40:00,58.9,53.1,29.76,SSW,197,8.0,12.0,81,0.00,,,0.00,Wunderground v.1.15,2013-09-17 12:40:00,
2013-09-17 05:46:00,58.6,52.8,29.75,SSW,198,12.0,18.0,81,0.00,,,0.00,Wunderground v.1.15,2013-09-17 12:46:00,
2013-09-17 05:51:00,58.4,52.9,29.75,SW,221,15.0,18.0,82,0.00,,,0.00,Wunderground v.1.15,2013-09-17 12:51:00,
2013-09-17 05:56:00,58.2,52.7,29.75,SW,220,11.0,21.0,82,0.00,,,0.00,Wunderground v.1.15,2013-09-17 12:56:00,
2013-09-17 06:02:00,58.1,52.6,29.75,South,181,13.0,13.0,82,0.00,,,0.00,Wunderground v.1.15,2013-09-17 13:02:00,
2013-09-17 06:07:00,58.0,52.9,29.76,SSW,198,8.0,21.0,83,0.00,,,0.00,Wunderground v.1.15,2013-09-17 13:07:00,
2013-09-17 06:12:00,58.0,52.9,29.75,South,189,17.0,21.0,83,0.00,,,0.00,Wunderground v.1.15,2013-09-17 13:12:00,
2013-09-17 06:17:00,57.9,52.8,29.75,SW,215,4.0,21.0,83,0.00,,,0.00,Wunderground v.1.15,2013-09-17 13:17:00,
2013-09-17 06:22:00,57.8,52.7,29.76,SSW,196,3.0,13.0,83,0.00,,,0.00,Wunderground v.1.15,2013-09-17 13:22:00,
2013-09-17 06:27:00,57.8,52.7,29.76,South,173,9.0,14.0,83,0.00,,,0.00,Wunderground v.1.15,2013-09-17 13:27:00,
2013-09-17 06:32:00,57.8,52.7,29.76,SW,219,14.0,14.0,83,0.00,,,0.00,Wunderground v.1.15,2013-09-17 13:32:00,
2013-09-17 06:37:00,57.8,52.7,29.76,SSW,192,10.0,17.0,83,0.00,,,0.00,Wunderground v.1.15,2013-09-17 13:37:00,
2013-09-17 06:42:00,57.7,52.6,29.76,SW,228,14.0,16.0,83,0.00,,,0.00,Wunderground v.1.15,2013-09-17 13:42:00,
2013-09-17 06:47:00,57.5,52.4,29.76,South,170,6.0,16.0,83,0.00,,,0.00,Wunderground v.1.15,2013-09-17 13:47:00,
2013-09-17 06:52:00,57.5,52.4,29.77,SSE,163,5.0,11.0,83,0.00,,,0.00,Wunderground v.1.15,2013-09-17 13:52:00,
2013-09-17 06:57:00,57.5,52.4,29.77,SSW,194,6.0,14.0,83,0.00,,,0.00,Wunderground v.1.15,2013-09-17 13:57:00,
2013-09-17 07:02:00,57.5,52.4,29.77,SSW,196,6.0,13.0,83,0.00,,,0.00,Wunderground v.1.15,2013-09-17 14:02:00,
2013-09-17 07:07:00,57.6,52.5,29.77,SSW,202,5.0,13.0,83,0.00,,,0.00,Wunderground v.1.15,2013-09-17 14:07:00,
2013-09-17 07:12:00,57.6,52.5,29.77,South,188,6.0,9.0,83,0.00,,,0.00,Wunderground v.1.15,2013-09-17 14:12:00,
2013-09-17 07:17:00,57.6,52.5,29.78,SSE,163,7.0,11.0,83,0.00,,,0.00,Wunderground v.1.15,2013-09-17 14:17:00,
2013-09-17 07:22:00,57.7,52.2,29.78,SSW,207,1.0,10.0,82,0.00,,,0.00,Wunderground v.1.15,2013-09-17 14:22:00,
2013-09-17 07:27:00,57.9,52.4,29.78,South,186,7.0,10.0,82,0.00,,,0.00,Wunderground v.1.15,2013-09-17 14:27:00,
2013-09-17 07:32:00,58.1,52.6,29.78,SSW,201,3.0,10.0,82,0.00,,,0.00,Wunderground v.1.15,2013-09-17 14:32:00,
2013-09-17 07:37:00,58.4,52.6,29.78,SSW,202,8.0,12.0,81,0.00,,,0.00,Wunderground v.1.15,2013-09-17 14:37:00,
2013-09-17 07:42:00,58.6,52.8,29.78,SSW,193,7.0,10.0,81,0.00,,,0.00,Wunderground v.1.15,2013-09-17 14:42:00,
2013-09-17 07:47:00,58.8,52.6,29.78,SSW,209,6.0,11.0,80,0.00,,,0.00,Wunderground v.1.15,2013-09-17 14:47:00,
2013-09-17 07:52:00,58.9,52.7,29.78,SW,215,9.0,9.0,80,0.00,,,0.00,Wunderground v.1.15,2013-09-17 14:52:00,
2013-09-17 07:57:00,59.0,52.8,29.78,SSW,213,7.0,12.0,80,0.00,,,0.00,Wunderground v.1.15,2013-09-17 14:57:00,
2013-09-17 08:02:00,59.3,53.1,29.78,SSW,204,8.0,14.0,80,0.00,,,0.00,Wunderground v.1.15,2013-09-17 15:02:00,
2013-09-17 08:07:00,59.5,53.0,29.78,South,176,5.0,15.0,79,0.00,,,0.00,Wunderground v.1.15,2013-09-17 15:07:00,
2013-09-17 08:12:00,59.7,53.2,29.78,South,184,4.0,12.0,79,0.00,,,0.00,Wunderground v.1.15,2013-09-17 15:12:00,
2013-09-17 08:17:00,59.9,53.0,29.78,SSW,211,6.0,13.0,78,0.00,,,0.00,Wunderground v.1.15,2013-09-17 15:17:00,
2013-09-17 08:22:00,60.2,53.3,29.78,SSW,207,7.0,10.0,78,0.00,,,0.00,Wunderground v.1.15,2013-09-17 15:22:00,
2013-09-17 08:27:00,60.4,53.2,29.78,SSW,201,2.0,11.0,77,0.00,,,0.00,Wunderground v.1.15,2013-09-17 15:27:00,
2013-09-17 08:32:00,60.8,53.5,29.79,SW,221,9.0,13.0,77,0.00,,,0.00,Wunderground v.1.15,2013-09-17 15:32:00,
2013-09-17 08:37:00,61.1,53.5,29.78,SSW,194,7.0,13.0,76,0.00,,,0.00,Wunderground v.1.15,2013-09-17 15:37:00,
2013-09-17 08:43:00,61.3,53.3,29.79,WSW,258,11.0,11.0,75,0.00,,,0.00,Wunderground v.1.15,2013-09-17 15:43:00,
2013-09-17 08:48:00,61.6,53.6,29.79,SW,214,3.0,11.0,75,0.00,,,0.00,Wunderground v.1.15,2013-09-17 15:48:00,
2013-09-17 08:53:00,61.8,53.8,29.79,SW,233,2.0,10.0,75,0.00,,,0.00,Wunderground v.1.15,2013-09-17 15:53:00,
2013-09-17 08:58:00,62.1,53.7,29.79,SSW,205,7.0,11.0,74,0.00,,,0.00,Wunderground v.1.15,2013-09-17 15:58:00,
2013-09-17 09:03:00,62.6,53.4,29.79,SSW,207,4.0,7.0,72,0.00,,,0.00,Wunderground v.1.15,2013-09-17 16:03:00,
2013-09-17 09:08:00,63.3,53.7,29.79,South,190,7.0,9.0,71,0.00,,,0.00,Wunderground v.1.15,2013-09-17 16:08:00,
2013-09-17 09:13:00,64.0,53.6,29.79,South,171,5.0,12.0,69,0.00,,,0.00,Wunderground v.1.15,2013-09-17 16:13:00,
2013-09-17 09:18:00,64.7,53.9,29.79,South,185,4.0,12.0,68,0.00,,,0.00,Wunderground v.1.15,2013-09-17 16:18:00,
2013-09-17 09:23:00,65.1,54.3,29.80,SSW,207,5.0,14.0,68,0.00,,,0.00,Wunderground v.1.15,2013-09-17 16:23:00,
2013-09-17 09:28:00,65.2,54.4,29.80,SSW,209,6.0,14.0,68,0.00,,,0.00,Wunderground v.1.15,2013-09-17 16:28:00,
2013-09-17 09:33:00,65.4,54.2,29.80,South,186,5.0,15.0,67,0.00,,,0.00,Wunderground v.1.15,2013-09-17 16:33:00,
2013-09-17 09:38:00,65.9,54.2,29.80,South,189,5.0,15.0,66,0.00,,,0.00,Wunderground v.1.15,2013-09-17 16:38:00,
2013-09-17 09:43:00,66.7,54.1,29.80,South,184,6.0,11.0,64,0.00,,,0.00,Wunderground v.1.15,2013-09-17 16:43:00,
2013-09-17 09:48:00,67.3,54.3,29.81,South,177,2.0,11.0,63,0.00,,,0.00,Wunderground v.1.15,2013-09-17 16:48:00,
2013-09-17 09:53:00,67.9,54.0,29.81,SW,229,2.0,8.0,61,0.00,,,0.00,Wunderground v.1.15,2013-09-17 16:53:00,
2013-09-17 09:58:00,68.5,54.1,29.81,SSW,193,4.0,8.0,60,0.00,,,0.00,Wunderground v.1.15,2013-09-17 16:58:00,
2013-09-17 10:03:00,69.0,54.1,29.81,SW,223,4.0,13.0,59,0.00,,,0.00,Wunderground v.1.15,2013-09-17 17:03:00,
2013-09-17 10:08:00,69.4,54.0,29.81,SW,221,2.0,13.0,58,0.00,,,0.00,Wunderground v.1.15,2013-09-17 17:08:00,
2013-09-17 10:13:00,69.8,53.9,29.81,SSW,197,5.0,10.0,57,0.00,,,0.00,Wunderground v.1.15,2013-09-17 17:13:00,
2013-09-17 10:18:00,70.3,53.9,29.81,SW,231,7.0,11.0,56,0.00,,,0.00,Wunderground v.1.15,2013-09-17 17:18:00,
2013-09-17 10:23:00,70.7,53.7,29.81,SW,234,7.0,11.0,55,0.00,,,0.00,Wunderground v.1.15,2013-09-17 17:23:00,
2013-09-17 10:28:00,71.0,53.5,29.81,WSW,239,11.0,11.0,54,0.00,,,0.00,Wunderground v.1.15,2013-09-17 17:28:00,
2013-09-17 10:33:00,71.3,53.3,29.81,WSW,247,8.0,10.0,53,0.00,,,0.00,Wunderground v.1.15,2013-09-17 17:33:00,
2013-09-17 10:38:00,71.7,53.1,29.81,SSW,202,2.0,12.0,52,0.00,,,0.00,Wunderground v.1.15,2013-09-17 17:38:00,
2013-09-17 10:43:00,72.0,52.9,29.81,SW,226,9.0,11.0,51,0.00,,,0.00,Wunderground v.1.15,2013-09-17 17:43:00,
2013-09-17 10:48:00,72.4,53.2,29.81,SW,232,9.0,12.0,51,0.00,,,0.00,Wunderground v.1.15,2013-09-17 17:48:00,
2013-09-17 10:53:00,72.8,53.1,29.81,SSW,206,5.0,10.0,50,0.00,,,0.00,Wunderground v.1.15,2013-09-17 17:53:00,
2013-09-17 10:58:00,73.3,53.0,29.81,SSW,207,10.0,10.0,49,0.00,,,0.00,Wunderground v.1.15,2013-09-17 17:58:00,
2013-09-17 11:03:00,73.6,52.7,29.81,SSW,204,5.0,13.0,48,0.00,,,0.00,Wunderground v.1.15,2013-09-17 18:03:00,
2013-09-17 11:08:00,73.8,53.4,29.81,SSW,213,7.0,15.0,49,0.00,,,0.00,Wunderground v.1.15,2013-09-17 18:08:00,
2013-09-17 11:14:00,74.1,53.2,29.81,SW,220,5.0,10.0,48,0.00,,,0.00,Wunderground v.1.15,2013-09-17 18:14:00,
2013-09-17 11:19:00,74.3,53.9,29.81,SW,231,5.0,11.0,49,0.00,,,0.00,Wunderground v.1.15,2013-09-17 18:19:00,
2013-09-17 11:24:00,74.5,52.9,29.81,SW,216,3.0,13.0,47,0.00,,,0.00,Wunderground v.1.15,2013-09-17 18:24:00,
2013-09-17 11:29:00,74.9,53.9,29.81,WSW,249,6.0,13.0,48,0.00,,,0.00,Wunderground v.1.15,2013-09-17 18:29:00,
2013-09-17 11:34:00,75.1,52.9,29.81,SW,235,3.0,10.0,46,0.00,,,0.00,Wunderground v.1.15,2013-09-17 18:34:00,
2013-09-17 11:39:00,75.3,53.1,29.81,SW,230,8.0,12.0,46,0.00,,,0.00,Wunderground v.1.15,2013-09-17 18:39:00,
2013-09-17 11:44:00,75.6,53.4,29.81,SW,220,6.0,11.0,46,0.00,,,0.00,Wunderground v.1.15,2013-09-17 18:44:00,
2013-09-17 11:49:00,75.8,53.5,29.81,SSW,202,6.0,12.0,46,0.00,,,0.00,Wunderground v.1.15,2013-09-17 18:49:00,
2013-09-17 11:54:00,76.0,53.1,29.81,SSW,208,3.0,11.0,45,0.00,,,0.00,Wunderground v.1.15,2013-09-17 18:54:00,
2013-09-17 11:59:00,76.5,53.6,29.81,WSW,237,8.0,11.0,45,0.00,,,0.00,Wunderground v.1.15,2013-09-17 18:59:00,
2013-09-17 12:04:00,76.9,53.3,29.81,SSW,193,3.0,13.0,44,0.00,,,0.00,Wunderground v.1.15,2013-09-17 19:04:00,
2013-09-17 12:09:00,77.0,53.4,29.81,SSW,204,6.0,13.0,44,0.00,,,0.00,Wunderground v.1.15,2013-09-17 19:09:00,
2013-09-17 12:14:00,76.7,53.1,29.81,SSW,209,7.0,12.0,44,0.00,,,0.00,Wunderground v.1.15,2013-09-17 19:14:00,
2013-09-17 12:19:00,76.9,53.3,29.81,SW,225,3.0,13.0,44,0.00,,,0.00,Wunderground v.1.15,2013-09-17 19:19:00,
2013-09-17 12:24:00,77.4,53.1,29.80,South,182,3.0,12.0,43,0.00,,,0.00,Wunderground v.1.15,2013-09-17 19:24:00,
2013-09-17 12:29:00,77.6,53.3,29.80,WSW,238,6.0,13.0,43,0.00,,,0.00,Wunderground v.1.15,2013-09-17 19:29:00,
2013-09-17 12:34:00,77.9,53.6,29.81,SSW,210,6.0,12.0,43,0.00,,,0.00,Wunderground v.1.15,2013-09-17 19:34:00,
2013-09-17 12:39:00,77.9,53.0,29.81,WSW,248,11.0,12.0,42,0.00,,,0.00,Wunderground v.1.15,2013-09-17 19:39:00,
2013-09-17 12:44:00,77.6,53.3,29.81,SSW,211,2.0,11.0,43,0.00,,,0.00,Wunderground v.1.15,2013-09-17 19:44:00,
2013-09-17 12:49:00,77.8,52.9,29.81,WSW,248,8.0,11.0,42,0.00,,,0.00,Wunderground v.1.15,2013-09-17 19:49:00,
2013-09-17 12:54:00,77.9,53.0,29.81,SSW,201,2.0,10.0,42,0.00,,,0.00,Wunderground v.1.15,2013-09-17 19:54:00,
2013-09-17 12:59:00,78.7,53.0,29.81,SSW,204,4.0,11.0,41,0.00,,,0.00,Wunderground v.1.15,2013-09-17 19:59:00,
2013-09-17 13:04:00,78.5,52.8,29.81,SSW,213,9.0,14.0,41,0.00,,,0.00,Wunderground v.1.15,2013-09-17 20:04:00,
2013-09-17 13:09:00,78.8,53.1,29.80,SW,232,12.0,15.0,41,0.00,,,0.00,Wunderground v.1.15,2013-09-17 20:09:00,
2013-09-17 13:15:00,78.9,53.2,29.80,SSW,208,7.0,11.0,41,0.00,,,0.00,Wunderground v.1.15,2013-09-17 20:15:00,
2013-09-17 13:20:00,79.6,53.1,29.80,South,179,9.0,9.0,40,0.00,,,0.00,Wunderground v.1.15,2013-09-17 20:20:00,
2013-09-17 13:25:00,80.1,52.9,29.80,SW,221,5.0,10.0,39,0.00,,,0.00,Wunderground v.1.15,2013-09-17 20:25:00,
2013-09-17 13:30:00,80.3,52.4,29.80,SW,223,6.0,8.0,38,0.00,,,0.00,Wunderground v.1.15,2013-09-17 20:30:00,
2013-09-17 13:35:00,79.9,52.7,29.80,SSW,196,2.0,9.0,39,0.00,,,0.00,Wunderground v.1.15,2013-09-17 20:35:00,
2013-09-17 13:40:00,80.7,53.4,29.80,SSW,199,4.0,9.0,39,0.00,,,0.00,Wunderground v.1.15,2013-09-17 20:40:00,
2013-09-17 13:45:00,80.1,52.2,29.79,South,184,2.0,11.0,38,0.00,,,0.00,Wunderground v.1.15,2013-09-17 20:45:00,
2013-09-17 13:50:00,80.3,52.4,29.79,SSW,198,4.0,4.0,38,0.00,,,0.00,Wunderground v.1.15,2013-09-17 20:50:00,
2013-09-17 13:55:00,81.1,52.4,29.79,SW,227,6.0,10.0,37,0.00,,,0.00,Wunderground v.1.15,2013-09-17 20:55:00,
2013-09-17 14:00:00,80.7,52.7,29.79,SW,221,2.0,5.0,38,0.00,,,0.00,Wunderground v.1.15,2013-09-17 21:00:00,
2013-09-17 14:05:00,80.9,52.9,29.79,SSW,209,0.0,13.0,38,0.00,,,0.00,Wunderground v.1.15,2013-09-17 21:05:00,
2013-09-17 14:10:00,81.3,52.5,29.79,SW,229,12.0,12.0,37,0.00,,,0.00,Wunderground v.1.15,2013-09-17 21:10:00,
2013-09-17 14:15:00,81.1,53.8,29.78,SW,230,11.0,13.0,39,0.00,,,0.00,Wunderground v.1.15,2013-09-17 21:15:00,
2013-09-17 14:20:00,81.1,53.8,29.78,WSW,242,13.0,15.0,39,0.00,,,0.00,Wunderground v.1.15,2013-09-17 21:20:00,
2013-09-17 14:25:00,80.7,54.1,29.78,SSE,168,12.0,15.0,40,0.00,,,0.00,Wunderground v.1.15,2013-09-17 21:25:00,
2013-09-17 14:30:00,80.4,53.9,29.78,SSW,210,8.0,17.0,40,0.00,,,0.00,Wunderground v.1.15,2013-09-17 21:30:00,
2013-09-17 14:35:00,80.1,54.3,29.78,South,184,6.0,17.0,41,0.00,,,0.00,Wunderground v.1.15,2013-09-17 21:35:00,
2013-09-17 14:40:00,79.9,54.1,29.78,SW,217,10.0,14.0,41,0.00,,,0.00,Wunderground v.1.15,2013-09-17 21:40:00,
2013-09-17 14:45:00,80.2,54.4,29.78,South,184,6.0,15.0,41,0.00,,,0.00,Wunderground v.1.15,2013-09-17 21:45:00,
2013-09-17 14:50:00,80.1,53.6,29.78,SSW,211,6.0,12.0,40,0.00,,,0.00,Wunderground v.1.15,2013-09-17 21:50:00,
2013-09-17 14:55:00,80.1,53.6,29.78,WSW,239,6.0,16.0,40,0.00,,,0.00,Wunderground v.1.15,2013-09-17 21:55:00,
2013-09-17 15:00:00,80.0,53.5,29.78,SSW,192,7.0,14.0,40,0.00,,,0.00,Wunderground v.1.15,2013-09-17 22:00:00,
2013-09-17 15:05:00,80.3,53.8,29.78,South,184,3.0,15.0,40,0.00,,,0.00,Wunderground v.1.15,2013-09-17 22:05:00,
2013-09-17 15:10:00,80.0,54.2,29.78,SW,222,15.0,17.0,41,0.00,,,0.00,Wunderground v.1.15,2013-09-17 22:10:00,
2013-09-17 15:15:00,80.3,53.8,29.78,SW,236,10.0,17.0,40,0.00,,,0.00,Wunderground v.1.15,2013-09-17 22:15:00,
2013-09-17 15:20:00,80.0,54.2,29.78,SW,217,13.0,19.0,41,0.00,,,0.00,Wunderground v.1.15,2013-09-17 22:20:00,
2013-09-17 15:25:00,80.0,54.2,29.78,SW,217,11.0,19.0,41,0.00,,,0.00,Wunderground v.1.15,2013-09-17 22:25:00,
2013-09-17 15:30:00,80.3,53.8,29.78,SW,215,8.0,16.0,40,0.00,,,0.00,Wunderground v.1.15,2013-09-17 22:30:00,
2013-09-17 15:36:00,80.3,54.5,29.78,SSW,205,7.0,17.0,41,0.00,,,0.00,Wunderground v.1.15,2013-09-17 22:36:00,
2013-09-17 15:41:00,80.3,54.5,29.77,South,183,4.0,11.0,41,0.00,,,0.00,Wunderground v.1.15,2013-09-17 22:41:00,
2013-09-17 15:46:00,80.6,54.0,29.77,SSW,193,8.0,16.0,40,0.00,,,0.00,Wunderground v.1.15,2013-09-17 22:46:00,
2013-09-17 15:51:00,80.2,54.4,29.77,South,189,6.0,11.0,41,0.00,,,0.00,Wunderground v.1.15,2013-09-17 22:51:00,
2013-09-17 15:56:00,80.4,53.9,29.78,SW,221,8.0,15.0,40,0.00,,,0.00,Wunderground v.1.15,2013-09-17 22:56:00,
2013-09-17 16:01:00,80.2,54.4,29.77,South,186,5.0,12.0,41,0.00,,,0.00,Wunderground v.1.15,2013-09-17 23:01:00,
2013-09-17 16:06:00,80.3,53.8,29.77,SSW,202,6.0,15.0,40,0.00,,,0.00,Wunderground v.1.15,2013-09-17 23:06:00,
2013-09-17 16:11:00,80.0,54.2,29.77,WSW,254,5.0,13.0,41,0.00,,,0.00,Wunderground v.1.15,2013-09-17 23:11:00,
2013-09-17 16:16:00,80.3,53.8,29.77,South,180,11.0,15.0,40,0.00,,,0.00,Wunderground v.1.15,2013-09-17 23:16:00,
2013-09-17 16:21:00,80.2,54.4,29.77,SSW,192,12.0,12.0,41,0.00,,,0.00,Wunderground v.1.15,2013-09-17 23:21:00,
2013-09-17 16:26:00,80.1,54.3,29.77,SSW,211,8.0,17.0,41,0.00,,,0.00,Wunderground v.1.15,2013-09-17 23:26:00,
2013-09-17 16:31:00,79.9,54.8,29.77,South,189,10.0,15.0,42,0.00,,,0.00,Wunderground v.1.15,2013-09-17 23:31:00,
2013-09-17 16:36:00,79.8,54.7,29.78,South,180,10.0,15.0,42,0.00,,,0.00,Wunderground v.1.15,2013-09-17 23:36:00,
2013-09-17 16:41:00,79.7,55.2,29.78,SSE,166,3.0,15.0,43,0.00,,,0.00,Wunderground v.1.15,2013-09-17 23:41:00,
2013-09-17 16:46:00,79.6,55.1,29.78,SSW,208,11.0,16.0,43,0.00,,,0.00,Wunderground v.1.15,2013-09-17 23:46:00,
2013-09-17 16:51:00,80.0,54.8,29.78,SSW,204,8.0,14.0,42,0.00,,,0.00,Wunderground v.1.15,2013-09-17 23:51:00,
2013-09-17 16:56:00,80.2,55.0,29.77,SSW,200,6.0,14.0,42,0.00,,,0.00,Wunderground v.1.15,2013-09-17 23:56:00,
2013-09-17 17:01:00,80.2,55.0,29.77,SSW,192,8.0,10.0,42,0.00,,,0.00,Wunderground v.1.15,2013-09-18 00:01:00,
2013-09-17 17:06:00,79.8,55.3,29.78,SSE,167,6.0,16.0,43,0.00,,,0.00,Wunderground v.1.15,2013-09-18 00:06:00,
2013-09-17 17:11:00,79.9,55.4,29.78,South,184,5.0,10.0,43,0.00,,,0.00,Wunderground v.1.15,2013-09-18 00:11:00,
2013-09-17 17:16:00,79.9,55.4,29.78,South,171,9.0,13.0,43,0.00,,,0.00,Wunderground v.1.15,2013-09-18 00:16:00,
2013-09-17 17:21:00,79.8,55.3,29.78,South,175,7.0,8.0,43,0.00,,,0.00,Wunderground v.1.15,2013-09-18 00:21:00,
2013-09-17 17:26:00,79.8,55.3,29.78,South,173,8.0,13.0,43,0.00,,,0.00,Wunderground v.1.15,2013-09-18 00:26:00,
2013-09-17 17:31:00,79.7,55.9,29.78,South,171,3.0,7.0,44,0.00,,,0.00,Wunderground v.1.15,2013-09-18 00:31:00,
2013-09-17 17:36:00,79.6,55.8,29.78,SSE,150,7.0,10.0,44,0.00,,,0.00,Wunderground v.1.15,2013-09-18 00:36:00,
2013-09-17 17:41:00,79.1,55.9,29.79,SSE,158,3.0,8.0,45,0.00,,,0.00,Wunderground v.1.15,2013-09-18 00:41:00,
2013-09-17 17:46:00,79.1,55.3,29.79,South,176,6.0,13.0,44,0.00,,,0.00,Wunderground v.1.15,2013-09-18 00:46:00,
2013-09-17 17:51:00,78.9,55.8,29.78,SSE,160,10.0,10.0,45,0.00,,,0.00,Wunderground v.1.15,2013-09-18 00:51:00,
2013-09-17 17:56:00,78.6,55.5,29.78,South,189,7.0,13.0,45,0.00,,,0.00,Wunderground v.1.15,2013-09-18 00:56:00,
2013-09-17 18:01:00,78.4,55.3,29.78,SSW,198,5.0,13.0,45,0.00,,,0.00,Wunderground v.1.15,2013-09-18 01:01:00,
2013-09-17 18:06:00,78.2,55.7,29.79,SSE,151,6.0,13.0,46,0.00,,,0.00,Wunderground v.1.15,2013-09-18 01:06:00,
2013-09-17 18:11:00,77.8,55.4,29.79,SSE,153,11.0,13.0,46,0.00,,,0.00,Wunderground v.1.15,2013-09-18 01:11:00,
2013-09-17 18:16:00,77.2,55.4,29.79,SSW,204,8.0,14.0,47,0.00,,,0.00,Wunderground v.1.15,2013-09-18 01:16:00,
2013-09-17 18:21:00,76.6,55.4,29.79,SSW,202,5.0,11.0,48,0.00,,,0.00,Wunderground v.1.15,2013-09-18 01:21:00,
2013-09-17 18:26:00,76.2,55.1,29.79,South,176,5.0,11.0,48,0.00,,,0.00,Wunderground v.1.15,2013-09-18 01:26:00,
2013-09-17 18:31:00,75.9,55.4,29.80,SSE,155,4.0,9.0,49,0.00,,,0.00,Wunderground v.1.15,2013-09-18 01:31:00,
2013-09-17 18:36:00,75.4,54.9,29.80,SSW,194,5.0,14.0,49,0.00,,,0.00,Wunderground v.1.15,2013-09-18 01:36:00,
2013-09-17 18:41:00,75.0,55.1,29.79,South,171,6.0,12.0,50,0.00,,,0.00,Wunderground v.1.15,2013-09-18 01:41:00,
2013-09-17 18:46:00,74.6,55.3,29.79,SSE,157,8.0,15.0,51,0.00,,,0.00,Wunderground v.1.15,2013-09-18 01:46:00,
2013-09-17 18:51:00,74.3,55.0,29.79,South,175,7.0,8.0,51,0.00,,,0.00,Wunderground v.1.15,2013-09-18 01:51:00,
2013-09-17 18:56:00,74.0,54.7,29.79,SW,227,5.0,11.0,51,0.00,,,0.00,Wunderground v.1.15,2013-09-18 01:56:00,
2013-09-17 19:01:00,73.7,55.0,29.79,SSW,205,5.0,8.0,52,0.00,,,0.00,Wunderground v.1.15,2013-09-18 02:01:00,
2013-09-17 19:06:00,73.4,54.7,29.79,SSW,192,5.0,14.0,52,0.00,,,0.00,Wunderground v.1.15,2013-09-18 02:06:00,
2013-09-17 19:11:00,73.1,54.9,29.79,SSW,199,6.0,11.0,53,0.00,,,0.00,Wunderground v.1.15,2013-09-18 02:11:00,
2013-09-17 19:16:00,72.8,54.7,29.79,SSW,209,7.0,11.0,53,0.00,,,0.00,Wunderground v.1.15,2013-09-18 02:16:00,
2013-09-17 19:21:00,72.6,55.0,29.80,South,174,9.0,9.0,54,0.00,,,0.00,Wunderground v.1.15,2013-09-18 02:21:00,
2013-09-17 19:26:00,72.2,54.6,29.80,South,179,5.0,9.0,54,0.00,,,0.00,Wunderground v.1.15,2013-09-18 02:26:00,
2013-09-17 19:31:00,72.0,54.9,29.80,SSW,192,4.0,7.0,55,0.00,,,0.00,Wunderground v.1.15,2013-09-18 02:31:00,
2013-09-17 19:36:00,71.7,55.2,29.80,South,189,6.0,8.0,56,0.00,,,0.00,Wunderground v.1.15,2013-09-18 02:36:00,
2013-09-17 19:41:00,71.4,54.9,29.80,South,170,3.0,9.0,56,0.00,,,0.00,Wunderground v.1.15,2013-09-18 02:41:00,
2013-09-17 19:46:00,71.1,55.1,29.81,South,170,3.0,9.0,57,0.00,,,0.00,Wunderground v.1.15,2013-09-18 02:46:00,
2013-09-17 19:51:00,70.7,54.7,29.81,SSE,156,3.0,4.0,57,0.00,,,0.00,Wunderground v.1.15,2013-09-18 02:51:00,
2013-09-17 19:56:00,70.4,54.9,29.81,SSE,157,3.0,5.0,58,0.00,,,0.00,Wunderground v.1.15,2013-09-18 02:56:00,
2013-09-17 20:01:00,70.2,54.7,29.81,South,182,3.0,5.0,58,0.00,,,0.00,Wunderground v.1.15,2013-09-18 03:01:00,
2013-09-17 20:06:00,70.1,55.1,29.81,South,175,6.0,10.0,59,0.00,,,0.00,Wunderground v.1.15,2013-09-18 03:06:00,
2013-09-17 20:11:00,69.9,54.9,29.81,South,180,4.0,5.0,59,0.00,,,0.00,Wunderground v.1.15,2013-09-18 03:11:00,
2013-09-17 20:16:00,69.6,54.6,29.81,South,181,4.0,10.0,59,0.00,,,0.00,Wunderground v.1.15,2013-09-18 03:16:00,
2013-09-17 20:21:00,69.5,54.5,29.81,South,186,5.0,10.0,59,0.00,,,0.00,Wunderground v.1.15,2013-09-18 03:21:00,
2013-09-17 20:26:00,69.2,54.7,29.82,South,186,4.0,10.0,60,0.00,,,0.00,Wunderground v.1.15,2013-09-18 03:26:00,
2013-09-17 20:31:00,69.0,54.5,29.82,South,191,6.0,10.0,60,0.00,,,0.00,Wunderground v.1.15,2013-09-18 03:31:00,
2013-09-17 20:36:00,68.7,54.3,29.82,South,187,4.0,10.0,60,0.00,,,0.00,Wunderground v.1.15,2013-09-18 03:36:00,
2013-09-17 20:41:00,68.5,54.1,29.82,South,186,3.0,7.0,60,0.00,,,0.00,Wunderground v.1.15,2013-09-18 03:41:00,
2013-09-17 20:46:00,68.3,54.3,29.83,South,186,2.0,8.0,61,0.00,,,0.00,Wunderground v.1.15,2013-09-18 03:46:00,
2013-09-17 20:51:00,68.2,54.2,29.83,South,190,4.0,8.0,61,0.00,,,0.00,Wunderground v.1.15,2013-09-18 03:51:00,
2013-09-17 20:56:00,68.0,54.0,29.83,South,190,5.0,9.0,61,0.00,,,0.00,Wunderground v.1.15,2013-09-18 03:56:00,
2013-09-17 21:01:00,67.8,53.9,29.83,SSW,192,7.0,8.0,61,0.00,,,0.00,Wunderground v.1.15,2013-09-18 04:01:00,
2013-09-17 21:02:00,67.8,53.9,29.83,SSW,192,1.0,8.0,61,0.00,,,0.00,Wunderground v.1.15,2013-09-18 04:02:00,
2013-09-17 21:07:00,67.6,54.1,29.83,SSW,192,6.0,8.0,62,0.00,,,0.00,Wunderground v.1.15,2013-09-18 04:07:00,
2013-09-17 21:12:00,67.4,53.9,29.83,SSW,192,4.0,7.0,62,0.00,,,0.00,Wunderground v.1.15,2013-09-18 04:12:00,
2013-09-17 21:17:00,67.2,54.2,29.83,SSW,192,6.0,9.0,63,0.00,,,0.00,Wunderground v.1.15,2013-09-18 04:17:00,
2013-09-17 21:22:00,66.9,53.9,29.83,South,189,3.0,10.0,63,0.00,,,0.00,Wunderground v.1.15,2013-09-18 04:22:00,
2013-09-17 21:27:00,66.7,53.7,29.84,South,190,4.0,10.0,63,0.00,,,0.00,Wunderground v.1.15,2013-09-18 04:27:00,
2013-09-17 21:32:00,66.6,53.6,29.84,South,188,6.0,8.0,63,0.00,,,0.00,Wunderground v.1.15,2013-09-18 04:32:00,
2013-09-17 21:37:00,66.5,53.5,29.84,South,188,6.0,9.0,63,0.00,,,0.00,Wunderground v.1.15,2013-09-18 04:37:00,
2013-09-17 21:42:00,66.4,53.8,29.84,South,188,2.0,7.0,64,0.00,,,0.00,Wunderground v.1.15,2013-09-18 04:42:00,
2013-09-17 21:47:00,66.3,53.8,29.84,South,188,4.0,7.0,64,0.00,,,0.00,Wunderground v.1.15,2013-09-18 04:47:00,
2013-09-17 21:52:00,66.2,53.7,29.84,South,188,3.0,7.0,64,0.00,,,0.00,Wunderground v.1.15,2013-09-18 04:52:00,
2013-09-17 21:57:00,66.0,53.5,29.84,South,188,3.0,7.0,64,0.00,,,0.00,Wunderground v.1.15,2013-09-18 04:57:00,
2013-09-17 22:02:00,65.9,53.4,29.84,South,188,4.0,5.0,64,0.00,,,0.00,Wunderground v.1.15,2013-09-18 05:02:00,
2013-09-17 22:07:00,65.7,53.2,29.84,South,188,3.0,7.0,64,0.00,,,0.00,Wunderground v.1.15,2013-09-18 05:07:00,
2013-09-17 22:12:00,65.6,53.5,29.84,South,188,3.0,6.0,65,0.00,,,0.00,Wunderground v.1.15,2013-09-18 05:12:00,
2013-09-17 22:17:00,65.5,53.4,29.84,South,188,6.0,8.0,65,0.00,,,0.00,Wunderground v.1.15,2013-09-18 05:17:00,
2013-09-17 22:22:00,65.4,53.3,29.84,South,188,2.0,4.0,65,0.00,,,0.00,Wunderground v.1.15,2013-09-18 05:22:00,
2013-09-17 22:27:00,65.4,53.3,29.84,South,188,2.0,5.0,65,0.00,,,0.00,Wunderground v.1.15,2013-09-18 05:27:00,
2013-09-17 22:31:00,65.3,53.2,29.84,South,188,2.0,3.0,65,0.00,,,0.00,Wunderground v.1.15,2013-09-18 05:31:00,
2013-09-17 22:36:00,65.3,53.2,29.84,South,188,1.0,5.0,65,0.00,,,0.00,Wunderground v.1.15,2013-09-18 05:36:00,
2013-09-17 22:41:00,65.2,53.1,29.84,South,188,5.0,5.0,65,0.00,,,0.00,Wunderground v.1.15,2013-09-18 05:41:00,
2013-09-17 22:46:00,65.1,53.0,29.84,South,188,3.0,5.0,65,0.00,,,0.00,Wunderground v.1.15,2013-09-18 05:46:00,
2013-09-17 22:51:00,65.0,53.4,29.84,South,188,1.0,3.0,66,0.00,,,0.00,Wunderground v.1.15,2013-09-18 05:51:00,
2013-09-17 22:56:00,64.9,53.3,29.84,South,188,0.0,4.0,66,0.00,,,0.00,Wunderground v.1.15,2013-09-18 05:56:00,
2013-09-17 23:01:00,64.8,53.2,29.84,South,188,1.0,3.0,66,0.00,,,0.00,Wunderground v.1.15,2013-09-18 06:01:00,
2013-09-17 23:06:00,64.7,53.1,29.84,South,188,1.0,3.0,66,0.00,,,0.00,Wunderground v.1.15,2013-09-18 06:06:00,
2013-09-17 23:11:00,64.5,52.9,29.84,South,188,0.0,1.0,66,0.00,,,0.00,Wunderground v.1.15,2013-09-18 06:11:00,
2013-09-17 23:16:00,64.4,52.8,29.84,South,188,0.0,3.0,66,0.00,,,0.00,Wunderground v.1.15,2013-09-18 06:16:00,
2013-09-17 23:21:00,64.3,53.1,29.84,South,188,0.0,1.0,67,0.00,,,0.00,Wunderground v.1.15,2013-09-18 06:21:00,
2013-09-17 23:26:00,64.1,52.9,29.84,South,188,0.0,1.0,67,0.00,,,0.00,Wunderground v.1.15,2013-09-18 06:26:00,
2013-09-17 23:31:00,64.0,52.8,29.84,South,188,1.0,1.0,67,0.00,,,0.00,Wunderground v.1.15,2013-09-18 06:31:00,
2013-09-17 23:36:00,63.8,52.6,29.84,South,188,1.0,3.0,67,0.00,,,0.00,Wunderground v.1.15,2013-09-18 06:36:00,
2013-09-17 23:41:00,63.6,52.4,29.84,South,188,2.0,3.0,67,0.00,,,0.00,Wunderground v.1.15,2013-09-18 06:41:00,
2013-09-17 23:46:00,63.4,52.2,29.84,South,188,2.0,3.0,67,0.00,,,0.00,Wunderground v.1.15,2013-09-18 06:46:00,
2013-09-17 23:51:00,63.2,52.1,29.84,South,188,3.0,5.0,67,0.00,,,0.00,Wunderground v.1.15,2013-09-18 06:51:00,
2013-09-17 23:56:00,63.1,52.4,29.85,South,188,1.0,5.0,68,0.00,,,0.00,Wunderground v.1.15,2013-09-18 06:56:00,